FW1892 Weather Reports


Display with metric or nautical units.
time (UTC)temp
F
wind
direction
speed
MPH
gust
MPH
rain 1hr
in
rain 24hr
in
rain mn
in
humidity
%
barometer
mb
20260508153240 56 280 7.0 10.0 0.00 0.00 0.00 35 1007.8
20260508152736 57 283 6.0 10.0 0.00 0.00 0.00 34 1007.8
20260508152232 58 354 8.0 10.0 0.00 0.00 0.00 33 1007.9
20260508151728 57 296 4.0 8.0 0.00 0.00 0.00 33 1007.5
20260508151225 57 341 5.0 6.0 0.00 0.00 0.00 34 1007.7
20260508150722 58 173 1.0 8.0 0.00 0.00 0.00 32 1007.4
20260508150219 57 228 3.0 6.0 0.00 0.00 0.00 33 1007.5
20260508145715 58 307 7.0 13.0 0.00 0.00 0.00 32 1007.5
20260508145211 56 226 3.0 8.0 0.00 0.00 0.00 35 1007.7
20260508144708 57 268 6.0 9.0 0.00 0.00 0.00 33 1007.7
20260508144206 57 316 5.0 8.0 0.00 0.00 0.00 35 1007.6
20260508143703 56 261 11.0 15.0 0.00 0.00 0.00 35 1007.7
20260508143200 55 89 3.0 7.0 0.00 0.00 0.00 37 1008.0
20260508142656 54 50 2.0 7.0 0.00 0.00 0.00 38 1008.1
20260508142154 54 275 4.0 10.0 0.00 0.00 0.00 36 1008.0
20260508141650 54 343 5.0 14.0 0.00 0.00 0.00 36 1008.0
20260508141148 55 315 5.0 8.0 0.00 0.00 0.00 35 1008.2
20260508140645 55 354 5.0 9.0 0.00 0.00 0.00 35 1008.0
20260508140142 54 26 2.0 7.0 0.00 0.00 0.00 37 1007.9
20260508135637 54 185 6.0 10.0 0.00 0.00 0.00 36 1008.2
20260508135133 55 328 6.0 11.0 0.00 0.00 0.00 35 1008.2
20260508134630 55 154 3.0 8.0 0.00 0.00 0.00 36 1008.2
20260508134127 55 348 3.0 7.0 0.00 0.00 0.00 38 1008.3
20260508133624 55 287 6.0 10.0 0.00 0.00 0.00 37 1008.2
20260508133121 53 275 2.0 7.0 0.00 0.00 0.00 39 1008.2
20260508132619 55 262 6.0 9.0 0.00 0.00 0.00 37 1008.2
20260508132115 55 277 5.0 8.0 0.00 0.00 0.00 37 1008.4
20260508131611 55 231 7.0 9.0 0.00 0.00 0.00 37 1008.4
20260508131108 55 295 5.0 9.0 0.00 0.00 0.00 37 1008.2
20260508130605 54 295 3.0 6.0 0.00 0.00 0.00 40 1008.3
20260508125556 53 248 4.0 7.0 0.00 0.00 0.00 38 1008.3
20260508125055 53 305 5.0 7.0 0.00 0.00 0.00 40 1008.2
20260508124553 52 335 2.0 4.0 0.00 0.00 0.00 41 1008.4
20260508124049 53 269 5.0 10.0 0.00 0.00 0.00 41 1008.3
20260508123548 52 271 5.0 7.0 0.00 0.00 0.00 43 1008.2
20260508123044 51 124 1.0 7.0 0.00 0.00 0.00 44 1008.2
20260508122541 51 27 3.0 4.0 0.00 0.00 0.00 44 1008.3
20260508122038 51 277 2.0 7.0 0.00 0.00 0.00 45 1008.3
20260508121536 50 205 2.0 3.0 0.00 0.00 0.00 47 1008.5
20260508121034 50 222 4.0 7.0 0.00 0.00 0.00 48 1008.5
20260508120531 49 9 2.0 8.0 0.00 0.00 0.00 48 1008.4
20260508120029 49 353 4.0 8.0 0.00 0.00 0.00 47 1008.3
20260508115526 49 267 3.0 8.0 0.00 0.00 0.00 48 1008.4
20260508115023 48 266 4.0 6.0 0.00 0.00 0.00 51 1008.3
20260508114520 48 132 0.0 3.0 0.00 0.00 0.00 53 1008.4
20260508114016 47 12 1.0 3.0 0.00 0.00 0.00 54 1008.3
20260508113514 46 157 1.0 2.0 0.00 0.00 0.00 56 1008.2
20260508113011 45 143 1.0 2.0 0.00 0.00 0.00 59 1008.2
20260508112508 44 113 1.0 2.0 0.00 0.00 0.00 60 1008.4
20260508112005 43 166 0.0 2.0 0.00 0.00 0.00 64 1008.4
20260508111502 43 167 0.0 1.0 0.00 0.00 0.00 65 1008.4
20260508110959 42 119 0.0 0.0 0.00 0.00 0.00 67 1008.4
20260508110456 41 169 0.0 0.0 0.00 0.00 0.00 69 1008.4
20260508105956 40 116 0.0 0.0 0.00 0.00 0.00 76 1008.3
20260508105452 38 149 0.0 0.0 0.00 0.00 0.00 79 1008.3
20260508104950 38 137 0.0 0.0 0.00 0.00 0.00 81 1008.2
20260508104447 37 119 0.0 0.0 0.00 0.00 0.00 82 1008.1
20260508103943 37 92 0.0 0.0 0.00 0.00 0.00 83 1008.2
20260508103441 36 216 1.0 1.0 0.00 0.00 0.00 83 1007.9
20260508102937 36 130 0.0 0.0 0.00 0.00 0.00 84 1008.1
20260508102436 36 110 0.0 0.0 0.00 0.00 0.00 84 1008.0
20260508101933 36 118 0.0 0.0 0.00 0.00 0.00 84 1007.8
20260508101430 35 124 0.0 0.0 0.00 0.00 0.00 85 1007.7
20260508100927 35 135 0.0 0.0 0.00 0.00 0.00 85 1007.8
20260508100426 35 124 0.0 0.0 0.00 0.00 0.00 86 1007.7
20260508095922 35 122 0.0 0.0 0.00 0.00 0.00 86 1007.4
20260508095420 35 118 0.0 0.0 0.00 0.00 0.00 86 1007.5
20260508094916 34 122 0.0 0.0 0.00 0.00 0.00 86 1007.5
20260508094413 34 123 0.0 0.0 0.00 0.00 0.00 86 1007.4
20260508093910 34 128 0.0 0.0 0.00 0.00 0.00 86 1007.4
20260508093408 34 119 0.0 0.0 0.00 0.00 0.00 86 1007.3
20260508092905 34 114 0.0 0.0 0.00 0.00 0.00 86 1007.5
20260508092403 34 114 0.0 0.0 0.00 0.00 0.00 85 1007.3
20260508091901 34 124 0.0 0.0 0.00 0.00 0.00 85 1007.4
20260508091357 34 124 0.0 0.0 0.00 0.00 0.00 85 1007.4
20260508090855 34 106 0.0 0.0 0.00 0.00 0.00 85 1007.3
20260508090353 34 114 0.0 0.0 0.00 0.00 0.00 85 1007.2
20260508085848 34 127 0.0 0.0 0.00 0.00 0.00 85 1007.3
20260508085345 35 114 0.0 0.0 0.00 0.00 0.00 85 1007.2
20260508084842 35 98 0.0 0.0 0.00 0.00 0.00 85 1007.2
20260508084339 35 111 0.0 0.0 0.00 0.00 0.00 84 1007.3
20260508083837 35 113 0.0 0.0 0.00 0.00 0.00 84 1007.4
20260508083334 35 111 0.0 0.0 0.00 0.00 0.00 84 1007.4
20260508082833 35 119 0.0 0.0 0.00 0.00 0.00 84 1007.3
20260508082331 34 107 0.0 0.0 0.00 0.00 0.00 84 1007.1
20260508081828 35 133 0.0 0.0 0.00 0.00 0.00 83 1007.1
20260508081325 35 127 0.0 0.0 0.00 0.00 0.00 83 1007.1
20260508080822 35 131 0.0 0.0 0.00 0.00 0.00 83 1007.0
20260508080320 35 123 0.0 0.0 0.00 0.00 0.00 83 1006.9
20260508075816 35 123 0.0 0.0 0.00 0.00 0.00 83 1006.7
20260508075313 35 127 0.0 0.0 0.00 0.00 0.00 82 1006.6
20260508074811 35 114 0.0 0.0 0.00 0.00 0.00 82 1006.7
20260508074308 35 114 0.0 0.0 0.00 0.00 0.00 82 1006.5
20260508073805 36 114 0.0 0.0 0.00 0.00 0.00 81 1006.4
20260508073303 36 118 0.0 0.0 0.00 0.00 0.00 81 1006.5
20260508072759 36 129 0.0 0.0 0.00 0.00 0.00 81 1006.4
20260508072256 36 122 0.0 0.0 0.00 0.00 0.00 80 1006.3
20260508071753 36 116 0.0 0.0 0.00 0.00 0.00 80 1006.4
20260508071252 36 116 0.0 0.0 0.00 0.00 0.00 79 1006.5
20260508070748 37 120 0.0 0.0 0.00 0.00 0.00 78 1006.4
20260508070247 37 120 0.0 0.0 0.00 0.00 0.00 78 1006.5
20260508065744 37 124 0.0 0.0 0.00 0.00 0.00 78 1006.5
20260508065242 37 118 0.0 0.0 0.00 0.00 0.00 78 1006.5
20260508064740 37 140 0.0 0.0 0.00 0.00 0.00 78 1006.5
20260508064238 37 120 0.0 0.0 0.00 0.00 0.00 78 1006.3
20260508063735 37 127 0.0 0.0 0.00 0.00 0.00 78 1006.4
20260508063232 37 128 0.0 0.0 0.00 0.00 0.00 77 1006.3
20260508062729 38 128 0.0 0.0 0.00 0.00 0.00 76 1006.5
20260508062227 38 128 0.0 0.0 0.00 0.00 0.00 76 1006.5
20260508061724 38 128 0.0 0.0 0.00 0.00 0.00 76 1006.4
20260508061221 38 126 0.0 0.0 0.00 0.00 0.00 76 1006.4
20260508060717 38 126 0.0 0.0 0.00 0.00 0.00 75 1006.7
20260508060215 38 126 0.0 0.0 0.00 0.00 0.00 75 1006.5
20260508055710 39 146 0.0 0.0 0.00 0.00 0.00 74 1006.6
20260508055207 39 138 0.0 0.0 0.00 0.00 0.00 74 1006.6
20260508054704 39 128 0.0 0.0 0.00 0.00 0.00 74 1006.8
20260508054202 39 154 0.0 0.0 0.00 0.00 0.00 73 1006.8
20260508053658 39 119 0.0 0.0 0.00 0.00 0.00 73 1006.8
20260508053156 39 119 0.0 0.0 0.00 0.00 0.00 73 1006.8
20260508052653 39 119 0.0 0.0 0.00 0.00 0.00 73 1006.8
20260508052150 39 136 0.0 0.0 0.00 0.00 0.00 72 1006.9
20260508051646 40 141 0.0 0.0 0.00 0.00 0.00 72 1006.8
20260508051142 40 146 0.0 0.0 0.00 0.00 0.00 72 1006.9
20260508050638 40 157 0.0 0.0 0.00 0.00 0.00 72 1006.9
20260508050136 40 129 0.0 0.0 0.00 0.00 0.00 71 1007.0
20260508045631 40 129 0.0 0.0 0.00 0.00 0.00 71 1007.1
20260508045130 41 129 0.0 0.0 0.00 0.00 0.00 71 1007.3
20260508044626 41 137 0.0 0.0 0.00 0.00 0.00 70 1006.9
20260508044122 41 137 0.0 0.0 0.00 0.00 0.00 70 1007.3
20260508043619 41 144 0.0 0.0 0.00 0.00 0.00 69 1007.2
20260508043117 41 99 0.0 0.0 0.00 0.00 0.00 68 1007.2
20260508042613 42 119 0.0 0.0 0.00 0.00 0.00 69 1007.3
20260508042111 42 96 0.0 0.0 0.00 0.00 0.00 67 1007.3
20260508041607 42 132 0.0 0.0 0.00 0.00 0.00 67 1007.2
20260508041103 42 138 0.0 0.0 0.00 0.00 0.00 67 1007.2
20260508040600 42 145 0.0 1.0 0.00 0.00 0.00 67 1007.2
20260508040058 43 228 0.0 0.0 0.00 0.00 0.00 67 1007.4
20260508035555 43 228 0.0 0.0 0.00 0.00 0.00 67 1007.3
20260508035052 43 231 0.0 0.0 0.00 0.00 0.00 66 1007.1
20260508034549 43 231 0.0 0.0 0.00 0.00 0.00 66 1007.2
20260508034046 44 231 0.0 0.0 0.00 0.00 0.00 65 1007.2
20260508033543 44 232 1.0 1.0 0.00 0.00 0.00 64 1007.3
20260508033042 44 151 1.0 1.0 0.00 0.00 0.00 63 1007.2
20260508032538 45 193 0.0 1.0 0.00 0.00 0.00 63 1007.1
20260508032036 45 107 0.0 0.0 0.00 0.00 0.00 62 1007.2
20260508031533 46 89 0.0 0.0 0.00 0.00 0.00 61 1007.1
20260508031028 46 116 0.0 0.0 0.00 0.00 0.00 58 1007.1
20260508030525 47 147 0.0 1.0 0.00 0.00 0.00 58 1007.0
20260508030023 47 118 0.0 0.0 0.00 0.00 0.00 54 1007.2
20260508025519 48 115 0.0 0.0 0.00 0.00 0.00 55 1007.2
20260508025016 48 124 0.0 0.0 0.00 0.00 0.00 51 1007.1
20260508024512 48 131 0.0 0.0 0.00 0.00 0.00 51 1007.0
20260508024009 49 123 0.0 0.0 0.00 0.00 0.00 50 1007.0
20260508023506 49 99 0.0 1.0 0.00 0.00 0.00 52 1007.1
20260508023003 48 226 0.0 0.0 0.00 0.00 0.00 51 1006.8
20260508022459 48 181 0.0 0.0 0.00 0.00 0.00 55 1007.0
20260508021955 48 132 0.0 0.0 0.00 0.00 0.00 55 1006.9
20260508021452 48 132 0.0 0.0 0.00 0.00 0.00 56 1007.1
20260508020948 48 177 0.0 0.0 0.00 0.00 0.00 56 1006.9
20260508020446 48 119 0.0 0.0 0.00 0.00 0.00 57 1006.8
20260508015942 49 139 0.0 0.0 0.00 0.00 0.00 55 1006.9
20260508015440 49 136 0.0 0.0 0.00 0.00 0.00 53 1006.7
20260508014937 50 145 0.0 0.0 0.00 0.00 0.00 49 1006.5
20260508014433 50 148 0.0 0.0 0.00 0.00 0.00 47 1006.5
20260508013929 50 287 0.0 0.0 0.00 0.00 0.00 47 1006.2
20260508013425 50 287 0.0 0.0 0.00 0.00 0.00 48 1006.3
20260508012923 50 164 0.0 0.0 0.00 0.00 0.00 48 1006.1
20260508012420 50 117 0.0 1.0 0.00 0.00 0.00 51 1006.2
20260508011917 50 143 0.0 1.0 0.00 0.00 0.00 52 1006.1
20260508011415 50 186 0.0 0.0 0.00 0.00 0.00 50 1005.9
20260508010912 51 164 0.0 0.0 0.00 0.00 0.00 47 1005.9
20260508010409 51 172 0.0 0.0 0.00 0.00 0.00 45 1006.1
20260508005906 52 149 0.0 0.0 0.00 0.00 0.00 43 1005.9
20260508005403 52 144 0.0 0.0 0.00 0.00 0.00 42 1005.9
20260508004900 52 163 0.0 0.0 0.00 0.00 0.00 41 1005.7
20260508004356 52 135 0.0 0.0 0.00 0.00 0.00 41 1005.7
20260508003852 53 122 0.0 0.0 0.00 0.00 0.00 40 1005.5
20260508003349 53 124 0.0 0.0 0.00 0.00 0.00 39 1005.4
20260508002847 53 166 0.0 2.0 0.00 0.00 0.00 37 1005.4
20260508002343 53 133 0.0 0.0 0.00 0.00 0.00 37 1005.3
20260508001839 54 156 0.0 0.0 0.00 0.00 0.00 38 1005.4
20260508001335 55 183 1.0 1.0 0.00 0.00 0.00 36 1005.4
20260508000832 55 261 2.0 2.0 0.00 0.00 0.00 35 1005.4
20260508000328 55 267 4.0 6.0 0.00 0.00 0.00 35 1005.2
20260507235825 55 198 1.0 3.0 0.00 0.00 0.00 35 1005.2
20260507235323 56 263 0.0 4.0 0.00 0.00 0.00 35 1005.2
20260507234819 56 268 1.0 2.0 0.00 0.00 0.00 34 1005.1
20260507234316 56 335 1.0 2.0 0.00 0.00 0.00 34 1005.0
20260507233812 56 272 2.0 8.0 0.00 0.00 0.00 33 1005.0
20260507233310 57 152 1.0 4.0 0.00 0.00 0.00 34 1005.2
20260507232808 57 266 1.0 6.0 0.00 0.00 0.00 33 1005.0
20260507232306 57 135 0.0 4.0 0.00 0.00 0.00 33 1004.7
20260507231801 58 285 2.0 4.0 0.00 0.00 0.00 32 1004.8
20260507231258 58 285 3.0 9.0 0.00 0.00 0.00 31 1004.8
20260507230754 59 220 5.0 6.0 0.00 0.00 0.00 31 1004.9
20260507230252 59 227 1.0 6.0 0.00 0.00 0.00 31 1004.8
20260507225752 60 276 6.0 7.0 0.00 0.00 0.00 30 1004.8
20260507225248 60 199 1.0 3.0 0.00 0.00 0.00 30 1004.7
20260507224744 60 286 6.0 9.0 0.00 0.00 0.00 30 1004.7
20260507224241 60 306 3.0 4.0 0.00 0.00 0.00 31 1004.9
20260507223737 60 313 3.0 4.0 0.00 0.00 0.00 31 1004.6
20260507223234 60 301 5.0 8.0 0.00 0.00 0.00 30 1004.6
20260507222730 60 261 1.0 6.0 0.00 0.00 0.00 30 1004.3
20260507222227 60 233 2.0 7.0 0.00 0.00 0.00 30 1004.6
20260507221724 61 286 4.0 8.0 0.00 0.00 0.00 30 1004.2
20260507221220 61 141 2.0 9.0 0.00 0.00 0.00 29 1004.3
20260507220717 61 337 2.0 4.0 0.00 0.00 0.00 30 1004.2
20260507220215 60 235 2.0 6.0 0.00 0.00 0.00 31 1004.3
20260507215711 61 274 8.0 9.0 0.00 0.00 0.00 29 1004.2
20260507215209 62 323 6.0 8.0 0.00 0.00 0.00 27 1004.1
20260507214706 62 277 4.0 6.0 0.00 0.00 0.00 29 1004.2
20260507214203 62 264 4.0 8.0 0.00 0.00 0.00 29 1004.4
20260507213658 62 300 4.0 10.0 0.00 0.00 0.00 29 1004.4
20260507213155 62 273 4.0 6.0 0.00 0.00 0.00 28 1004.2
20260507212651 62 275 4.0 11.0 0.00 0.00 0.00 28 1004.1
20260507212148 62 127 2.0 7.0 0.00 0.00 0.00 28 1004.2
20260507211645 62 311 4.0 8.0 0.00 0.00 0.00 29 1004.1
20260507211140 62 237 4.0 9.0 0.00 0.00 0.00 29 1004.2
20260507210639 63 200 6.0 10.0 0.00 0.00 0.00 28 1004.3
20260507210135 63 220 4.0 10.0 0.00 0.00 0.00 28 1004.2
20260507205631 63 279 7.0 9.0 0.00 0.00 0.00 28 1004.1
20260507205128 62 260 6.0 8.0 0.00 0.00 0.00 29 1004.1
20260507204624 63 343 6.0 7.0 0.00 0.00 0.00 28 1004.0
20260507204122 63 254 7.0 9.0 0.00 0.00 0.00 29 1004.0
20260507203620 62 290 3.0 6.0 0.00 0.00 0.00 30 1004.0
20260507203117 62 218 4.0 8.0 0.00 0.00 0.00 31 1003.9
20260507202613 62 293 4.0 11.0 0.00 0.00 0.00 30 1003.9
20260507202109 63 7 4.0 13.0 0.00 0.00 0.00 29 1004.0
20260507201604 63 224 4.0 9.0 0.00 0.00 0.00 29 1004.1
20260507201101 64 269 4.0 11.0 0.00 0.00 0.00 30 1004.0
20260507200557 64 276 2.0 9.0 0.00 0.00 0.00 29 1004.1
20260507200053 63 70 4.0 8.0 0.00 0.00 0.00 29 1004.1
20260507195550 64 125 3.0 8.0 0.00 0.00 0.00 30 1004.2
20260507195048 63 321 4.0 4.0 0.00 0.00 0.00 33 1004.2
20260507194544 62 46 2.0 6.0 0.00 0.00 0.00 29 1004.3
20260507194040 63 203 2.0 7.0 0.00 0.00 0.00 28 1004.2
20260507193537 62 219 6.0 13.0 0.00 0.00 0.00 30 1004.3
20260507193034 62 176 4.0 7.0 0.00 0.00 0.00 30 1004.3
20260507192530 62 289 6.0 8.0 0.00 0.00 0.00 29 1004.2
20260507192027 62 60 5.0 8.0 0.00 0.00 0.00 29 1004.3
20260507191522 62 331 3.0 13.0 0.00 0.00 0.00 28 1004.4
20260507191020 62 186 1.0 6.0 0.00 0.00 0.00 28 1004.4
20260507190517 62 343 3.0 6.0 0.00 0.00 0.00 30 1004.5
20260507190016 62 238 5.0 15.0 0.00 0.00 0.00 29 1004.7
20260507185514 63 129 9.0 13.0 0.00 0.00 0.00 27 1004.6
20260507185010 62 307 4.0 18.0 0.00 0.00 0.00 30 1004.9
20260507184508 62 283 6.0 8.0 0.00 0.00 0.00 30 1004.6
20260507184006 62 211 4.0 14.0 0.00 0.00 0.00 30 1005.2
20260507183501 62 249 4.0 7.0 0.00 0.00 0.00 31 1005.0
20260507182959 62 330 5.0 10.0 0.00 0.00 0.00 30 1004.8
20260507182455 62 213 5.0 7.0 0.00 0.00 0.00 32 1005.0
20260507181951 62 311 8.0 11.0 0.00 0.00 0.00 31 1005.0
20260507181448 61 235 5.0 7.0 0.00 0.00 0.00 34 1005.0
20260507180944 60 275 7.0 10.0 0.00 0.00 0.00 33 1005.1
20260507180441 60 278 7.0 11.0 0.00 0.00 0.00 34 1004.9
20260507175937 60 310 4.0 6.0 0.00 0.00 0.00 33 1005.1
20260507175434 60 243 4.0 7.0 0.00 0.00 0.00 34 1005.1
20260507174932 59 269 3.0 9.0 0.00 0.00 0.00 35 1005.0
20260507174428 58 285 4.0 7.0 0.00 0.00 0.00 35 1005.2
20260507173926 60 250 3.0 7.0 0.00 0.00 0.00 34 1005.1
20260507173423 60 319 5.0 8.0 0.00 0.00 0.00 36 1005.0
20260507172919 62 296 3.0 9.0 0.00 0.00 0.00 35 1005.0
20260507172416 61 87 1.0 2.0 0.00 0.00 0.00 36 1005.0
20260507171912 60 61 3.0 6.0 0.00 0.00 0.00 36 1005.1
20260507171409 61 275 5.0 10.0 0.00 0.00 0.00 33 1005.1
20260507170906 61 346 7.0 13.0 0.00 0.00 0.00 35 1005.1
20260507170402 61 272 7.0 11.0 0.00 0.00 0.00 35 1005.2
20260507165859 60 97 3.0 9.0 0.00 0.00 0.00 35 1005.2
20260507165354 60 258 8.0 11.0 0.00 0.00 0.00 36 1005.3
20260507164851 60 270 5.0 8.0 0.00 0.00 0.00 36 1005.6
20260507164348 60 343 7.0 10.0 0.00 0.00 0.00 35 1005.6
20260507163845 60 296 7.0 9.0 0.00 0.00 0.00 36 1005.5
20260507163342 60 237 5.0 13.0 0.00 0.00 0.00 36 1005.6
20260507162839 60 262 7.0 11.0 0.00 0.00 0.00 36 1005.5
20260507162334 60 327 8.0 10.0 0.00 0.00 0.00 35 1005.6
20260507161832 60 247 8.0 13.0 0.00 0.00 0.00 36 1005.6
20260507161328 59 255 5.0 8.0 0.00 0.00 0.00 38 1005.9
20260507160825 58 344 6.0 10.0 0.00 0.00 0.00 35 1005.9
20260507160321 59 261 5.0 7.0 0.00 0.00 0.00 38 1005.9
20260507155817 60 304 4.0 8.0 0.00 0.00 0.00 37 1005.7
20260507155313 60 301 7.0 9.0 0.00 0.00 0.00 38 1005.7
20260507154809 59 266 7.0 10.0 0.00 0.00 0.00 38 1005.9
20260507154307 59 288 4.0 11.0 0.00 0.00 0.00 39 1005.9
20260507153804 59 300 3.0 8.0 0.00 0.00 0.00 42 1006.0